When you browse on this site, cookies collect data to enhance your experience and personalize the content and advertising you see.
Visit our Privacy Policy to learn more. By continuing to use the site, you agree to this use of cookies and data.
  • In Sweden
  • List of Countries
  • For 7 days
  • Water Temperature
  • Weather Map
  • Weather Widgets
  • user-avatar
    Login

    Hourly Weather Stavanger

    Today, 27 May, Wednesday

    Time Temperature Precipitation Wind Pressure Humidity
    00:00 +8°C° 0 mm 3 mps 774 mmHg 97%
    01:00 +8°C° 0 mm 3 mps 774 mmHg 97%
    02:00 +8°C° 0 mm 3 mps 774 mmHg 97%
    03:00 +7°C° 0 mm 3 mps 774 mmHg 97%
    04:00 +7°C° 0 mm 4 mps 774 mmHg 91%
    05:00 +8°C° 0 mm 4 mps 774 mmHg 86%
    06:00 +10°C° 0 mm 3 mps 774 mmHg 80%
    07:00 +10°C° 0 mm 4 mps 774 mmHg 77%
    08:00 +11°C° 0 mm 4 mps 774 mmHg 74%
    09:00 +10°C° 0 mm 5 mps 774 mmHg 71%
    10:00 +11°C° 0 mm 6 mps 774 mmHg 71%
    11:00 +11°C° 0 mm 6 mps 774 mmHg 70%
    12:00 +11°C° 0 mm 7 mps 774 mmHg 70%
    13:00 +11°C° 0 mm 7 mps 774 mmHg 69%
    14:00 +11°C° 0 mm 7 mps 774 mmHg 67%
    15:00 +11°C° 0 mm 6 mps 774 mmHg 66%
    16:00 +10°C° 0 mm 6 mps 774 mmHg 67%
    17:00 +10°C° 0 mm 6 mps 774 mmHg 68%
    18:00 +9°C° 0 mm 6 mps 774 mmHg 69%
    19:00 +9°C° 0 mm 6 mps 774 mmHg 75%
    20:00 +8°C° 0 mm 6 mps 775 mmHg 80%
    21:00 +7°C° 0 mm 6 mps 775 mmHg 85%
    22:00 +7°C° 0 mm 5 mps 775 mmHg 86%
    23:00 +6°C° 0 mm 5 mps 775 mmHg 87%

    Tomorrow, 28 May, Thursday

    Time Temperature Precipitation Wind Pressure Humidity
    00:00 +6°C° 0 mm 5 mps 775 mmHg 88%
    01:00 +6°C° 0 mm 4 mps 774 mmHg 90%
    02:00 +5°C° 0 mm 4 mps 774 mmHg 92%
    03:00 +5°C° 0 mm 4 mps 774 mmHg 93%
    04:00 +7°C° 0 mm 3 mps 774 mmHg 86%
    05:00 +8°C° 0 mm 3 mps 774 mmHg 79%
    06:00 +9°C° 0 mm 3 mps 774 mmHg 72%
    07:00 +10°C° 0 mm 3 mps 774 mmHg 67%
    08:00 +11°C° 0 mm 4 mps 774 mmHg 62%
    09:00 +12°C° 0 mm 4 mps 774 mmHg 57%
    10:00 +13°C° 0 mm 4 mps 774 mmHg 55%
    11:00 +13°C° 0 mm 4 mps 774 mmHg 53%
    12:00 +14°C° 0 mm 5 mps 773 mmHg 51%
    13:00 +14°C° 0 mm 5 mps 773 mmHg 53%
    14:00 +14°C° 0 mm 5 mps 773 mmHg 54%
    15:00 +13°C° 0 mm 5 mps 773 mmHg 56%
    16:00 +13°C° 0 mm 5 mps 773 mmHg 59%
    17:00 +12°C° 0 mm 5 mps 772 mmHg 63%
    18:00 +10°C° 0 mm 5 mps 772 mmHg 66%
    19:00 +10°C° 0 mm 4 mps 772 mmHg 74%
    20:00 +8°C° 0 mm 4 mps 772 mmHg 81%
    21:00 +7°C° 0 mm 3 mps 772 mmHg 89%
    22:00 +7°C° 0 mm 3 mps 772 mmHg 88%
    23:00 +7°C° 0 mm 3 mps 772 mmHg 88%

    Day after tomorrow, 29 May, Friday

    Time Temperature Precipitation Wind Pressure Humidity
    00:00 +7°C° 0 mm 3 mps 772 mmHg 88%
    01:00 +7°C° 0 mm 2 mps 772 mmHg 87%
    02:00 +7°C° 0 mm 2 mps 772 mmHg 87%
    03:00 +7°C° 0 mm 2 mps 772 mmHg 86%
    04:00 +9°C° 0 mm 2 mps 772 mmHg 79%
    05:00 +10°C° 0 mm 2 mps 772 mmHg 73%
    06:00 +13°C° 0 mm 2 mps 772 mmHg 66%
    07:00 +14°C° 0 mm 2 mps 772 mmHg 61%
    08:00 +15°C° 0 mm 2 mps 772 mmHg 57%
    09:00 +16°C° 0 mm 3 mps 772 mmHg 53%
    10:00 +17°C° 0 mm 3 mps 772 mmHg 51%
    11:00 +18°C° 0 mm 3 mps 772 mmHg 50%
    12:00 +19°C° 0 mm 3 mps 771 mmHg 48%
    13:00 +19°C° 0 mm 3 mps 771 mmHg 49%
    14:00 +18°C° 0 mm 3 mps 771 mmHg 50%
    15:00 +18°C° 0 mm 3 mps 771 mmHg 51%
    16:00 +17°C° 0 mm 3 mps 771 mmHg 55%
    17:00 +17°C° 0 mm 3 mps 771 mmHg 58%
    18:00 +16°C° 0 mm 3 mps 771 mmHg 62%
    19:00 +14°C° 0 mm 3 mps 771 mmHg 67%
    20:00 +13°C° 0 mm 2 mps 771 mmHg 71%
    21:00 +12°C° 0 mm 2 mps 771 mmHg 76%
    22:00 +12°C° 0 mm 2 mps 771 mmHg 75%
    23:00 +12°C° 0 mm 1 mps 771 mmHg 73%

    30 May, Saturday

    Time Temperature Precipitation Wind Pressure Humidity
    00:00 +12°C° 0 mm 1 mps 771 mmHg 72%
    01:00 +12°C° 0 mm 1 mps 771 mmHg 72%
    02:00 +12°C° 0 mm 1 mps 771 mmHg 72%
    03:00 +12°C° 0 mm 1 mps 771 mmHg 72%
    04:00 +14°C° 0 mm 1 mps 772 mmHg 67%
    05:00 +15°C° 0 mm 0 mps 772 mmHg 62%
    06:00 +17°C° 0 mm 0 mps 772 mmHg 58%
    07:00 +20°C° 0 mm 1 mps 772 mmHg 53%
    08:00 +21°C° 0 mm 1 mps 772 mmHg 48%
    09:00 +23°C° 0 mm 1 mps 772 mmHg 44%
    10:00 +23°C° 0 mm 1 mps 772 mmHg 44%
    11:00 +23°C° 0 mm 1 mps 772 mmHg 45%
    12:00 +23°C° 0 mm 2 mps 772 mmHg 45%
    13:00 +21°C° 0 mm 2 mps 772 mmHg 47%
    14:00 +20°C° 0 mm 2 mps 771 mmHg 50%
    15:00 +19°C° 0 mm 2 mps 771 mmHg 52%
    16:00 +18°C° 0 mm 2 mps 771 mmHg 54%
    17:00 +18°C° 0 mm 2 mps 771 mmHg 55%
    18:00 +18°C° 0 mm 2 mps 771 mmHg 56%
    19:00 +16°C° 0 mm 1 mps 771 mmHg 61%
    20:00 +15°C° 0 mm 1 mps 771 mmHg 65%
    21:00 +14°C° 0 mm 1 mps 771 mmHg 70%
    22:00 +14°C° 0 mm 1 mps 771 mmHg 71%
    23:00 +14°C° 0 mm 1 mps 771 mmHg 72%

    31 May, Sunday

    Time Temperature Precipitation Wind Pressure Humidity
    00:00 +14°C° 0 mm 1 mps 771 mmHg 73%
    01:00 +14°C° 0 mm 1 mps 771 mmHg 72%
    02:00 +14°C° 0 mm 2 mps 771 mmHg 72%
    03:00 +14°C° 0 mm 2 mps 771 mmHg 71%
    04:00 +15°C° 0 mm 2 mps 772 mmHg 66%
    05:00 +16°C° 0 mm 3 mps 772 mmHg 60%
    06:00 +18°C° 0 mm 3 mps 772 mmHg 55%
    07:00 +19°C° 0 mm 3 mps 772 mmHg 52%
    08:00 +19°C° 0 mm 3 mps 772 mmHg 50%
    09:00 +20°C° 0 mm 2 mps 772 mmHg 48%
    10:00 +21°C° 0 mm 3 mps 772 mmHg 44%
    11:00 +22°C° 0 mm 3 mps 772 mmHg 41%
    12:00 +23°C° 0 mm 4 mps 771 mmHg 38%
    13:00 +22°C° 0 mm 4 mps 771 mmHg 40%
    14:00 +21°C° 0 mm 3 mps 771 mmHg 43%
    15:00 +21°C° 0 mm 3 mps 771 mmHg 45%
    16:00 +20°C° 0 mm 2 mps 771 mmHg 50%
    17:00 +20°C° 0 mm 1 mps 771 mmHg 54%
    18:00 +19°C° 0 mm 1 mps 771 mmHg 59%
    19:00 +18°C° 0 mm 1 mps 771 mmHg 61%
    20:00 +16°C° 0 mm 1 mps 770 mmHg 64%
    21:00 +15°C° 0 mm 1 mps 770 mmHg 66%
    22:00 +15°C° 0 mm 2 mps 770 mmHg 64%
    23:00 +15°C° 0 mm 2 mps 770 mmHg 61%

    1 June, Monday

    Time Temperature Precipitation Wind Pressure Humidity
    00:00 +15°C° 0 mm 2 mps 770 mmHg 59%
    01:00 +15°C° 0 mm 2 mps 770 mmHg 59%
    02:00 +15°C° 0 mm 2 mps 770 mmHg 60%
    03:00 +15°C° 0 mm 2 mps 769 mmHg 60%
    04:00 +16°C° 0 mm 2 mps 769 mmHg 60%
    05:00 +17°C° 0 mm 2 mps 769 mmHg 59%
    06:00 +18°C° 0 mm 2 mps 769 mmHg 58%
    07:00 +19°C° 0 mm 2 mps 769 mmHg 56%
    08:00 +20°C° 0 mm 2 mps 769 mmHg 53%
    09:00 +20°C° 0 mm 3 mps 769 mmHg 51%
    10:00 +21°C° 0 mm 3 mps 769 mmHg 46%
    11:00 +22°C° 0 mm 3 mps 769 mmHg 41%
    12:00 +23°C° 0 mm 4 mps 769 mmHg 36%
    13:00 +22°C° 0 mm 4 mps 769 mmHg 36%
    14:00 +22°C° 0 mm 4 mps 769 mmHg 37%
    15:00 +22°C° 0 mm 4 mps 769 mmHg 37%
    16:00 +20°C° 0 mm 4 mps 769 mmHg 41%
    17:00 +19°C° 0 mm 3 mps 768 mmHg 45%
    18:00 +18°C° 0 mm 3 mps 768 mmHg 49%
    19:00 +17°C° 0 mm 2 mps 768 mmHg 55%
    20:00 +15°C° 0 mm 2 mps 768 mmHg 61%
    21:00 +13°C° 0 mm 2 mps 768 mmHg 67%
    22:00 +13°C° 0 mm 2 mps 768 mmHg 66%
    23:00 +13°C° 0 mm 2 mps 768 mmHg 64%
    Show more